Home > Weather > Portland > Past weeks

Flag for USA Past Weather in Portland, Maine, USA — Yesterday and Last 2 Weeks

Now
67 °F

Clear.


Feels Like: 67 °F
Forecast: 66 / 76 °F
Wind: No wind

Location: Portland - Portland International Jetport

Current Time: Jul 28, 2016 at 2:41:04 AM

Latest Report: Jul 28, 2016 at 1:51 AM


Visibility: 10 mi

Pressure: 29.87 "Hg

Humidity: 87%

Dew Point: 63 °F

Location of PortlandLocation

Past Weather in Portland — Graph

°F

Portland Temperature Yesterday

Maximum temperature yesterday: 84 °F (at 10:51 AM)
Minimum temperature yesterday: 64 °F (at 4:51 AM)
Average temperature yesterday: 75 °F

High & Low Weather Summary for the Past Weeks

 TemperatureHumidityPressure
High94 °F (Jul 22, 2:51 PM)100% (Jul 18, 5:51 AM)30.15 "Hg (Jul 18, 5:51 AM)
Low56 °F (Jul 20, 3:51 AM)33% (Jul 22, 4:51 PM)29.66 "Hg (Jul 22, 5:51 PM)
Average74 °F68%29.91 "Hg
* Reported Jul 13 12:51 AM — Jul 28 12:51 AM, Portland, Weather by CustomWeather, © 2016

Note: Actual official high and low records may vary slightly from our data, if they occured in-between our weather recording intervals... More about our weather records

Advertising

Portland Weather History for the Previous 24 Hours

Scroll right to see more
 ConditionsComfort  
Time TempWeatherWind HumidityBarometerVisibility
12:51 AM
Thu, Jul 28
67 °FClear.No wind85%29.87 "Hg10 mi
11:51 PM
Wed, Jul 27
69 °FClear.No wind79%29.89 "Hg10 mi
10:51 PM70 °FClear.3 mph76%29.89 "Hg10 mi
9:51 PM72 °FClear.6 mph71%29.89 "Hg10 mi
8:51 PM72 °FScattered clouds.7 mph73%29.88 "Hg10 mi
7:51 PM75 °FSunny.6 mph64%29.87 "Hg10 mi
6:51 PM77 °FScattered clouds.8 mph58%29.87 "Hg10 mi
5:51 PM79 °FSunny.13 mph56%29.87 "Hg10 mi
4:51 PM80 °FSunny.12 mph52%29.87 "Hg10 mi
3:51 PM82 °FPassing clouds.12 mph51%29.87 "Hg10 mi
2:51 PM83 °FPassing clouds.13 mph50%29.88 "Hg10 mi
1:51 PM84 °FPassing clouds.12 mph49%29.89 "Hg10 mi
12:51 PM83 °FBroken clouds.9 mph51%29.90 "Hg10 mi
11:51 AM82 °FScattered clouds.3 mph49%29.90 "Hg10 mi
10:51 AM84 °FScattered clouds.7 mph49%29.91 "Hg10 mi
9:51 AM82 °FPassing clouds.8 mph51%29.91 "Hg10 mi
8:51 AM80 °FPassing clouds.7 mph58%29.91 "Hg10 mi
7:51 AM74 °FPassing clouds.5 mph69%29.91 "Hg10 mi
6:51 AM69 °FPassing clouds.5 mph76%29.91 "Hg10 mi
5:51 AM66 °FPassing clouds.3 mph81%29.90 "Hg10 mi
4:51 AM64 °FPassing clouds.3 mph87%29.88 "Hg10 mi
3:51 AM66 °FClear.5 mph84%29.88 "Hg10 mi
2:51 AM67 °FClear.3 mph81%29.87 "Hg10 mi
Weather by CustomWeather, © 2016

See weather overviewHow to use our weather pages